Location: Franzen
(48.6167°N, 15.3833°E)
Time: 09:33:47
(UTC+00:00)

Altair - Pass Details

Date: 01 August 2021
Orbit: 1501 x 1682 km, 47.2° (Epoch: 20 September)

Event Time Altitude Azimuth Distance (km) Brightness Sun altitude
Rises 06:05:48 0° 287° (WNW) 4,657 9.5 23.4°
Reaches altitude 10° 06:08:55 10° 283° (WNW) 3,664 9.0 23.9°
Maximum altitude 06:17:42 53° 210° (SSW) 1,798 8.0 25.3°
Drops below altitude 10° 06:26:31 10° 137° (SE) 3,673 10.3 26.8°
Sets 06:29:39 0° 133° (SE) 4,670 10.8 27.3°
